This is the latest recevied weather packets stored in our database for station/object N8VDS-10. If no packets are shown the sender has not sent any weather packets the latest 10 day(s).
| Time | Temp. | Humidity | Pressure | Rain* | Wind** | Luminosity | Snow |
|---|---|---|---|---|---|---|---|
| 1777646240 | 7.22° C | 64% | 1017.5 hPa | 0 mm | - | 363 W/m² | - |
| 1777645938 | 7.22° C | 64% | 1017.9 hPa | 0 mm | - | 311 W/m² | - |
| 1777645635 | 7.22° C | 64% | 1017.7 hPa | 0 mm | - | 319 W/m² | - |
| 1777645330 | 7.78° C | 64% | 1017.8 hPa | 0 mm | - | 387 W/m² | - |
| 1777645026 | 6.67° C | 66% | 1017.8 hPa | 0 mm | - | 413 W/m² | - |
| 1777644724 | 6.67° C | 65% | 1017.9 hPa | 0 mm | - | 339 W/m² | - |
| 1777644420 | 6.67° C | 66% | 1017.8 hPa | 0 mm | - | 331 W/m² | - |
| 1777644117 | 6.67° C | 67% | 1017.8 hPa | 0 mm | - | 418 W/m² | - |
| 1777643813 | 6.11° C | 68% | 1017.8 hPa | 0 mm | - | 258 W/m² | - |
| 1777643511 | 6.67° C | 67% | 1017.9 hPa | 0 mm | - | 290 W/m² | - |
| 1777642904 | 6.67° C | 68% | 1017.9 hPa | 0 mm | - | 322 W/m² | - |
| 1777642601 | 6.11° C | 68% | 1017.8 hPa | 0 mm | - | 440 W/m² | - |
| 1777642298 | 6.11° C | 69% | 1017.9 hPa | 0 mm | - | 428 W/m² | - |
| 1777641995 | 5.56° C | 72% | 1018.1 hPa | 0 mm | - | 351 W/m² | - |
| 1777641690 | 5.56° C | 74% | 1017.8 hPa | 0 mm | - | 319 W/m² | - |
| 1777641385 | 5° C | 76% | 1017.9 hPa | 0 mm | - | 256 W/m² | - |
| 1777641081 | 5° C | 79% | 1017.9 hPa | 0 mm | - | 142 W/m² | - |
| 1777640777 | 5° C | 79% | 1018 hPa | 0 mm | - | 153 W/m² | - |
| 1777640171 | 5° C | 82% | 1017.9 hPa | 0 mm | - | 141 W/m² | - |
| 1777639262 | 3.89° C | 85% | 1017.7 hPa | 0 mm | - | 105 W/m² | - |
| 1777638654 | 3.89° C | 87% | 1017.6 hPa | 0 mm | - | 136 W/m² | - |
| 1777638351 | 3.89° C | 88% | 1017.9 hPa | 0 mm | - | 84 W/m² | - |
| 1777638046 | 3.89° C | 89% | 1017.8 hPa | 0 mm | - | 88 W/m² | - |
| 1777637743 | 3.89° C | 89% | 1017.8 hPa | 0 mm | - | 88 W/m² | - |
| 1777637440 | 3.89° C | 90% | 1017.8 hPa | 0 mm | - | 83 W/m² | - |
* Rain latest hour (hover to see other rain measurements)
** Current wind speed in m/s (hover to see current wind gust speed)